Flag for U.S.A. Weather past 2 weeks in San Bernardino, California, U.S.A.

Now
73 °F

Clear.


Feels Like: 74 °F
Forecast: 70 / 92 °F
Wind: No wind

Location: Riverside Municipal Airport

Current Time: Jul 31, 2015 at 3:10:26 AM

Latest Report: Jul 31, 2015 at 1:53 AM


Visibility: 10 mi

Pressure: 29.97 "Hg

Humidity: 76%

Dew point: 65 °F

Location of San BernardinoLocation

Historic Weather in San Bernardino — Graph

°F

San Bernardino temperature yesterday

Maximum temperature yesterday: 95 °F (at 1:53 PM)
Minimum temperature yesterday: 72 °F (at 12:53 AM)
Average temperature yesterday: 81 °F

Past Weeks' High & Low Weather Summary

 TemperatureHumidityPressure
High95 °F (Jul 17, 2:53 PM)93% (Jul 18, 4:53 PM)30.05 "Hg (Jul 18, 4:53 PM)
Low63 °F (Jul 16, 3:53 AM)19% (Jul 25, 3:53 PM)29.73 "Hg (Jul 17, 4:53 PM)
Average77 °F63%29.90 "Hg
* Reported Jul 16 1:53 AM — Jul 31 1:53 AM, San Bernardino, Weather by CustomWeather, © 2015

Note: Actual official high and low records may vary slightly from our data, if they occured in-between our weather recording intervals... More about our weather records

Advertising

San Bernardino weather history for previous 24 hours

 ConditionsComfort  
Time TempWeatherWind HumidityBarometerVisibility
1:53 AM
Fri, Jul 31
73 °FClear.No wind76%29.97 "Hg10 mi
12:53 AM73 °FClear.5 mph76%29.97 "Hg10 mi
11:53 PM
Thu, Jul 30
75 °FClear.7 mph74%29.98 "Hg10 mi
10:53 PM77 °FClear.5 mph66%29.98 "Hg10 mi
9:53 PM79 °FClear.6 mph62%29.96 "Hg10 mi
8:53 PM81 °FClear.6 mph58%29.94 "Hg10 mi
7:53 PM83 °FSunny.5 mph53%29.93 "Hg10 mi
6:53 PM87 °FPartly sunny.10 mph48%29.91 "Hg10 mi
5:53 PM90 °FThundershowers. Partly sunny.9 mph43%29.90 "Hg10 mi
4:53 PM91 °FPartly sunny.12 mph42%29.88 "Hg10 mi
3:53 PM93 °FScattered clouds.16 mph40%29.88 "Hg10 mi
2:53 PM95 °FPartly sunny.15 mph39%29.89 "Hg10 mi
1:53 PM95 °FPartly sunny.13 mph37%29.91 "Hg10 mi
12:53 PM94 °FSunny.8 mph38%29.92 "Hg10 mi
11:53 AM91 °FPartly sunny.7 mph42%29.94 "Hg9 mi
10:53 AM87 °FScattered clouds.6 mph48%29.96 "Hg8 mi
9:53 AM81 °FSunny.5 mph56%29.96 "Hg8 mi
8:53 AM78 °FPartly sunny.5 mph62%29.96 "Hg9 mi
7:53 AM74 °FOvercast.No wind69%29.96 "Hg10 mi
6:53 AM73 °FMostly cloudy.No wind71%29.94 "Hg10 mi
5:53 AM72 °FPassing clouds.No wind73%29.93 "Hg10 mi
4:53 AM72 °FClear.No wind73%29.93 "Hg10 mi
3:53 AM72 °FClear.No wind73%29.92 "Hg10 mi
Weather by CustomWeather, © 2015

See weather overviewHow to use our weather pages